Content
SEND FEEDBACK

Daily
Averages
Monthly
Summary
France

LE HAVRE, FRANCE


Home > Europe > France
Elevation: 338 feet     Latitude: 49 31N     Longitude: 000 04E

WEATHER
 
SELECT A DAY
Number of Records: 183,594;   Date Range: 3/4/97 - 10/20/14
 
SHARE

PRINT THIS DATA

[ ← Previous Day ]
WEATHER ALMANAC - JUNE 19, 2013
[ Next Day → ]
[ °C ]   °F
Weather ElementAverageHighLow
Temperature60.8 °F71.6 °F (4:30 pm)53.6 °F (6:00 am)
Dewpoint55.7 °F60.8 °F (4:30 pm)51.8 °F (2:00 am)
Humidity84 %94 % (12:30 am)68 % (3:30 pm)
Barometer29.94 in29.98 in (12:30 am)29.89 in (4:30 pm)
Wind Speed8.1 mph15 mph (9:00 pm)
Weather ElementAverage
Visibility5.8 mi
Wind DirectionSSW (194 °)

Weather ElementTotal
Precipitation---
Heating Degree Days2.4 (Base 65)
Growing Degree Days12.6 (Base 50)
Averaged from 47 records on June 19, 2013
WEATHER CONDITIONS BREAKOUT
WIND DIRECTION BREAKOUT
WEATHER BY HOUR - JUNE 19, 2013
[ °C ]   °F
Local TimeTemperatureDewpointHumidityBarometerVisibilityWind DirectionWind SpeedGust SpeedPrecipitationEventsConditions
12:30 AM55.4 °F53.6 °F94 %29.98 in3.7 miNE (40°)4.6 mph
1:00 AM55.4 °F53.6 °F94 %29.98 in3.7 miNNE (20°)5.8 mph
1:30 AM55.4 °F53.6 °F94 %29.98 in5.0 miNE (50°)4.6 mph
2:00 AM55.4 °F51.8 °F88 %29.98 in5.0 miNorth (10°)5.8 mph
2:30 AM55.4 °F53.6 °F94 %29.98 inNorth (350°)6.9 mphMist
3:00 AM55.4 °F53.6 °F94 %29.98 inNNW (330°)8.1 mphMostly Cloudy
3:30 AM55.4 °F53.6 °F94 %29.98 in3.7 miNNW (340°)6.9 mphOvercast
4:00 AM55.4 °F51.8 °F88 %29.98 in5.0 miNorth (350°)6.9 mphMostly Cloudy
4:30 AM55.4 °F51.8 °F88 %29.95 in6.2 miNorth (360°)6.9 mphOvercast
5:00 AM55.4 °F51.8 °F88 %29.98 in6.2 miNNW (340°)5.8 mphOvercast
5:30 AM55.4 °F53.6 °F94 %29.95 in6.2 miNNW (340°)9.2 mphRain-ThunderstormLight Thunderstorms and Rain
6:00 AM53.6 °F51.8 °F94 %29.95 in6.2 miNorth (350°)4.6 mph
6:30 AM55.4 °F51.8 °F88 %29.95 in6.2 miNNW (340°)6.9 mphOvercast
7:00 AM55.4 °F51.8 °F88 %29.95 in6.2 miNNW (330°)6.9 mphMostly Cloudy
7:30 AM55.4 °F51.8 °F88 %29.95 in6.2 miNNW (340°)10.4 mphPartly Cloudy
8:00 AM55.4 °F53.6 °F94 %29.98 in6.2 miNNW (330°)6.9 mph
8:30 AM55.4 °F51.8 °F88 %29.98 in6.2 miNNW (330°)5.8 mphOvercast
9:00 AM55.4 °F51.8 °F88 %29.95 in6.2 miNorth (10°)5.8 mphMostly Cloudy
9:30 AM57.2 °F53.6 °F88 %29.98 in6.2 miENE (60°)6.9 mphMostly Cloudy
10:00 AM59.0 °F53.6 °F82 %29.95 in6.2 miENE (60°)8.1 mph
10:30 AM62.6 °F53.6 °F72 %29.92 in6.2 miNE (50°)9.2 mph
11:00 AM60.8 °F53.6 °F77 %29.95 in6.2 miWNW (300°)9.2 mph
11:30 AM59.0 °F55.4 °F88 %29.95 in6.2 miNNW (330°)9.2 mphMostly Cloudy
12:00 PM59.0 °F55.4 °F88 %29.98 in6.2 miNW (320°)11.5 mphOvercast
12:30 PM59.0 °F55.4 °F88 %29.95 in6.2 miNW (320°)11.5 mphOvercast
1:00 PM57.2 °F53.6 °F88 %29.98 in6.2 miWNW (300°)6.9 mphOvercast
1:30 PM57.2 °F53.6 °F88 %29.98 in5.6 miWest (280°)4.6 mphRainLight Rain
2:00 PM60.8 °F53.6 °F77 %29.95 in6.2 miNW (320°)5.8 mphMostly Cloudy
2:30 PM62.6 °F53.6 °F72 %29.92 in6.2 miNorth (350°)10.4 mph
3:00 PM64.4 °F55.4 °F73 %29.95 in6.2 miNorth (360°)5.8 mph
3:30 PM66.2 °F55.4 °F68 %29.95 in6.2 miNNE (20°)6.9 mph
4:00 PM66.2 °F57.2 °F73 %29.92 in6.2 miNorth (360°)12.7 mph
4:30 PM71.6 °F60.8 °F69 %29.89 in6.2 miNorth (10°)11.5 mph
5:00 PM69.8 °F60.8 °F73 %29.92 in6.2 miNE (40°)12.7 mph
5:30 PM69.8 °F60.8 °F73 %29.92 in6.2 miNE (50°)12.7 mph
6:00 PM69.8 °F60.8 °F73 %29.95 in6.2 miENE (60°)10.4 mph
6:30 PM68.0 °F60.8 °F78 %29.92 in6.2 miNE (50°)12.7 mph
7:00 PM66.2 °F60.8 °F83 %29.92 in6.2 miNE (50°)6.9 mph
7:30 PM68.0 °F59.0 °F73 %29.92 in6.2 miNE (50°)8.1 mph
8:00 PM68.0 °F59.0 °F73 %29.92 in6.2 miENE (60°)10.4 mph
8:30 PM68.0 °F59.0 °F73 %29.92 in6.2 miEast (80°)8.1 mph
9:00 PM66.2 °F60.8 °F83 %29.89 in6.2 miENE (60°)15.0 mphRainLight Rain
9:30 PM66.2 °F60.8 °F83 %29.89 in6.2 miEast (80°)10.4 mphPartly Cloudy
10:00 PM64.4 °F60.8 °F88 %29.89 in4.3 miEast (80°)10.4 mph
10:30 PM64.4 °F60.8 °F88 %29.89 in3.1 miESE (120°)5.8 mphMist
11:00 PM64.4 °F60.8 °F88 %29.89 inSSW (210°)4.6 mphMist
11:30 PM64.4 °F60.8 °F88 %29.92 inSE (130°)4.6 mphPartly Cloudy
Hourly data recorded from LFOH, located miles away from Le Havre, France







STORIES FROM OUR PARTNERS